Regional Weather Roundup
Issued by NWS Raleigh/Durham, NC

Home | Current Version | Previous Version | Text Only | Print | Product List | Glossary On
Versions: 1 2 3 4 5 6 7 8 9 10 11 12 13 14 15 16 17 18 19 20 21 22 23 24 25 26 27 28 29 30 31 32 33 34 35 36 37 38 39 40 41 42 43 44 45 46 47 48 49 50
000
ASUS42 KRAH 180510
RWRRAH
NORTH CAROLINA WEATHER ROUNDUP
NATIONAL WEATHER SERVICE RALEIGH NC
100 AM EDT THU SEP 18 2014

NOTE: "FAIR" INDICATES FEW OR NO CLOUDS BELOW 12,000 FEET WITH NO
SIGNIFICANT WEATHER AND/OR OBSTRUCTIONS TO VISIBILITY.

NCZ001-053-055-056-065-067-180600-
WESTERN NORTH CAROLINA

CITY           SKY/WX    TMP DP  RH WIND       PRES   REMARKS
ASHEVILLE      CLOUDY    61  59  93 CALM      30.02F
JEFFERSON      NOT AVBL
HICKORY        CLEAR     62  60  93 CALM      29.98F FOG
RUTHERFORDTON  NOT AVBL
MOUNT AIRY     NOT AVBL
BOONE          CLEAR     56  56 100 CALM      30.05S FOG
$$

NCZ021-022-025-041-071-084-088-180600-
CENTRAL NORTH CAROLINA

CITY           SKY/WX    TMP DP  RH WIND       PRES   REMARKS
CHARLOTTE      NOT AVBL
GREENSBORO     PTCLDY    64  61  90 N3        29.97S
WINSTON-SALEM  CLOUDY    63  60  90 N3        29.98F
RALEIGH-DURHAM PTCLDY    66  59  78 SE5       29.97S
FORT BRAGG     MOCLDY    69  64  83 E8        29.94S
FAYETTEVILLE   MOCLDY    69  65  86 NE5       29.94S
BURLINGTON     CLEAR     63  60  90 CALM      29.96F FOG
LAURINBURG     CLOUDY    70  68  93 NE5       29.94F FOG
$$

NCZ011-015-027-028-043-044-047-080-103-180600-
NORTHEASTERN NORTH CAROLINA

CITY           SKY/WX    TMP DP  RH WIND       PRES   REMARKS
ROCKY MT-WILSO PTCLDY    62  59  90 NE5       29.96F
GREENVILLE     PTCLDY    63  63 100 N3        29.97S
WASHINGTON     MOCLDY    63  61  94 CALM      29.95S
ELIZABETH CITY CLEAR     67  61  81 NE6       29.95
MANTEO         CLEAR     69  60  71 NE9       29.94S
CAPE HATTERAS  CLEAR     69  63  81 NE9       29.92S
$$

NCZ078-087-090-091-093-098-101-180600-
SOUTHEASTERN NORTH CAROLINA

CITY           SKY/WX    TMP DP  RH WIND       PRES   REMARKS
LUMBERTON      PTCLDY    70  67  90 NE6       29.93S
GOLDSBORO      PTCLDY    66  65  98 CALM      29.93F
KINSTON        MOCLDY    67  64  93 N5        29.95F
KENANSVILLE    MOCLDY    64  63  94 CALM      29.95F
NEW BERN       CLEAR     69  62  78 NE5       29.94F
CHERRY POINT   CLEAR     70  64  81 NE8       29.93F
BEAUFORT       CLEAR     71  66  84 NE6       29.91F
JACKSONVILLE   CLEAR     68  64  87 N3        29.92F
WILMINGTON     MOCLDY    68  66  93 NE8       29.92F
$$




USA.gov is the U.S. government's official web portal to all federal, state and local government web resources and services.